Regional Weather Roundup
Issued by NWS Kansas City/Pleasant Hill, MO

Home | Current Version | Previous Version | Graphics & Text | Print | Product List | Glossary Off
Versions: 1 2 3 4 5 6 7 8 9 10 11 12 13 14 15 16 17 18 19 20 21 22 23 24 25 26 27 28 29 30 31 32 33 34 35 36 37 38 39 40 41 42 43 44 45 46 47 48 49 50

000
ASUS43 KEAX 220011
RWREAX

WEATHER ROUNDUP FOR EASTERN KANSAS AND NORTHWEST MISSOURI
NATIONAL WEATHER SERVICE KANSAS CITY/PLEASANT HILL MO
700 PM CDT SUN SEP 21 2014

KSZ040-057-103>105-MOZ028-029-037-043-220100-
...KANSAS CITY METROPOLITAN AREA...

CITY           SKY/WX    TMP DP  RH WIND       PRES   REMARKS
K.C. INTL      CLEAR     66  50  56 N7        30.18R
6HR MIN TEMP:  66; 6HR MAX TEMP:  76;

K.C. DOWNTOWN  CLEAR     71  48  43 N8        30.16R
6HR MIN TEMP:  71; 6HR MAX TEMP:  78;

LEES SUMMIT    CLEAR     69  48  47 N9        30.17R
6HR MIN TEMP:  69; 6HR MAX TEMP:  76; 6HR PCP: TRACE;

OLATHE - IXD   CLEAR     67  49  52 N12       30.18R
6HR MIN TEMP:  67; 6HR MAX TEMP:  76;

OLATHE - OJC   CLEAR     71  47  42 N8        30.17R
6HR MIN TEMP:  71; 6HR MAX TEMP:  77;

LAWRENCE       CLEAR     70  47  43 N6        30.18R

$$

MOZ001>008-011>017-020>025-030>033-038>040-044>046-053-054-220100-
...NORTHERN AND CENTRAL MISSOURI...

CITY           SKY/WX    TMP DP  RH WIND       PRES   REMARKS
ST. JOSEPH     CLEAR     67  50  54 N7        30.18R
6HR MIN TEMP:  67; 6HR MAX TEMP:  76;

MOSBY          CLEAR     68  50  52 N6        30.17S
WHITEMAN AFB   CLEAR     67  51  56 N8        30.14R
6HR MIN TEMP:  67; 6HR MAX TEMP:  76;

CLINTON        CLEAR     68  55  64 N5        30.15R
SEDALIA        CLEAR     68  50  52 N8        30.15R
6HR MIN TEMP:  68; 6HR MAX TEMP:  79;

WARSAW         NOT AVBL
MARSHALL       CLEAR     70  50  49 N6        30.16R
CHILLICOTHE      N/A     68  50  52 VRB3      30.18R
6HR MIN TEMP:  68; 6HR MAX TEMP:  75;

MOBERLY        CLEAR     66  48  52 NW7       30.15R
KIRKSVILLE     CLOUDY    64  51  62 N8        30.16R
6HR MIN TEMP:  64; 6HR MAX TEMP:  72;


$$

MOZ041-047>049-056>058-063>065-088>090-097-220100-
...EASTERN AND SOUTHERN MISSOURI...

CITY           SKY/WX    TMP DP  RH WIND       PRES   REMARKS
ST. LOUIS INTL NOT AVBL
SPIRIT OF STL  PTCLDY    68  50  52 NW7       30.08R
COLUMBIA       CLEAR     66  49  54 N10       30.13R
JEFFERSON CITY CLEAR     71  48  43 N8        30.12R
MEXICO         PTCLDY    68  55  64 NW6       30.13R
HANNIBAL       MOCLDY    64  48  55 N5        30.13R
ROLLA          CLEAR     66  49  54 N7        30.10R
LEBANON        CLEAR     68  48  49 N6        30.13R
OSAGE BEACH    CLEAR     70  46  43 NW5       30.12R
SPRINGFIELD    CLEAR     69  51  52 N9        30.12S
BRANSON        PTCLDY    73  45  35 NW9       30.12S
NEVADA         CLEAR     66  52  59 N6        30.16R
JOPLIN         CLEAR     71  50  47 N6        30.14R
WEST PLAINS    CLEAR     70  47  43 N6        30.10R

$$

IAZ060-094-KSZ022-034>040-054-083-096-NEZ052-066-093-220100-
...KANSAS...SOUTHEAST NEBRASKA AND IOWA...

CITY           SKY/WX    TMP DP  RH WIND       PRES   REMARKS
TOPEKA         CLEAR     71  49  45 N7        30.19R
6HR MIN TEMP:  71; 6HR MAX TEMP:  79;

MANHATTAN      CLEAR     74  44  34 N6        30.19R
EMPORIA        CLEAR     71  47  42 N8        30.18R
CHANUTE        CLEAR     73  50  44 N6        30.16R
WICHITA        PTCLDY    78  39  24 N13       30.19R
OMAHA          PTCLDY    67  49  52 N9        30.21S
LINCOLN        CLEAR     67  48  50 NE10      30.23R
FALLS CITY     CLEAR     69  48  47 N9        30.19R
LAMONI         MOCLDY    64  50  60 N9        30.18R
DES MOINES     PTCLDY    66  48  52 N7        30.17R

$$




USA.gov is the U.S. government's official web portal to all federal, state and local government web resources and services.